Other Surface Observations
Issued by NWS

Home | Current Version | Previous Version | Text Only | Print | Product List | Glossary On
Versions: 1 2 3 4 5 6 7 8 9 10 11 12 13 14 15 16 17 18 19 20 21 22 23 24 25 26 27 28 29 30 31 32 33 34 35 36 37 38 39 40 41 42 43 44 45 46 47 48 49 50
000
SXUS52 KTAE 292018
OSOTAE
OSOTAE
North Florida/South Alabama/Southwest Georgia Weather Roundup
National Weather Service Tallahassee Florida
400 PM EDT FRI MAY 29 2015

Note: "fair" indicates few or no clouds below 12,000 feet with no
significant weather and/or obstructions to visibility.

!FLZ017-115-028-034-025-292100
...North Florida...

CITY           SKY/WX    TMP DP  RH WIND       PRES   REMARKS
TALLAHASSEE    PTSUNNY   88  59  37 VRB6      30.11F
APALACHICOLA   SUNNY     88  63  43 E13       30.11F
PERRY          MOSUNNY   87  58  36 E6        30.12F
CROSS CITY       N/A     90  59  35 VRB7      30.09F
JACKSONVILLE   MOSUNNY   83  64  52 E13       30.13F
$$

!FLZ112-006-005-002-011-292100
...Florida Panhandle...

CITY           SKY/WX    TMP DP  RH WIND       PRES   REMARKS
MARIANNA       SUNNY     86  62  44 SE6       30.11F
BONIFAY        FAIR      86  61  42 NE7       30.11F
PANAMA CITY NW FAIR      85  65  51 E9G17     30.09F
TYNDALL AFB    SUNNY     84  70  62 S12       30.10F
TYND DRONE APT FAIR      84  71  64 S15       30.09F
DE FUNIAK SPR  FAIR      85  65  49 MISG      30.10F
EGLIN AFB      MOSUNNY   85  69  60 S13       30.09F
DESTIN         MOSUNNY   85  70  60 SE12      30.09F
HURLBURT       MOSUNNY   85  69  60 SE15      30.08F
CRESTVIEW      MOSUNNY   81  69  67 SW6       30.10F
PENSACOLA      SUNNY     83  72  69 SE15      30.09F
$$

!ALZ063-066-292100
...South Alabama...

CITY           SKY/WX    TMP DP  RH WIND       PRES   REMARKS
DOTHAN         MOSUNNY   85  60  42 E8        30.16F
OZARK CAIRNS   MOSUNNY   85  62  44 E8        30.11F
FT RUCKER HELI MOSUNNY   86  61  42 VRB7      30.10F
RUCKER HELI 3  FAIR      85  61  43 E7G17     30.13F
RUCKER HELI 2  FAIR      85  58  39 SE7       30.11F
FLORALA APT    SUNNY     86  62  44 VRB7      30.11F
ANDALUSIA        N/A     91  63  39 E7        30.10F HX  92
TROY           MOSUNNY   87  65  47 E9G21     30.12F
EUFALA         FAIR      89  64  43 E8        30.12F HX  90
MOBILE         MOSUNNY   85  68  56 SE15      30.09F
$$

!GAZ120>161-292100
...Southwest and South Central Georgia...

CITY           SKY/WX    TMP DP  RH WIND       PRES   REMARKS
THOMASVILLE    FAIR      86  61  42 CALM      30.14F
BAINBRIDGE     PTSUNNY   88  63  42 E8        30.12F
MOODY AFB      MOSUNNY   88  56  33 E8        30.11F
VALDOSTA       MOSUNNY   88  58  36 VRB7      30.12F
MOULTRIE       PTSUNNY   86  59  39 NE3       30.14F
BLAKELY        MOSUNNY   88  61  40 CALM      30.13F
ALBANY         SUNNY     89  56  32 SE6       30.14F
TIFTON         FAIR      86  54  33 E9        30.14F
FITZGERALD     FAIR      86  55  33 E6        30.16F
CORDELE        FAIR      89  59  36 E7        30.15F
AMERICUS       FAIR      84  59  42 E8        30.16F
HOMERVILLE     FAIR      90  59  35 E7G16     30.13F
$$

!GMZ750-755-770-775-292100
...Coastal and Buoy Obs...

STATION/POSITION TIME  TEMP    WIND        PRES    VSBY  WAVE
                       AIR SEA DIR/SP/G                  HT/PER
                 (UTC) (F)     (DEG/KT/KT) (MB)    (MI)  (FT/S)
KEATON BEACH     2000   80     250/  8/  9 1019.7F
CEDAR KEY        2000   82     290/  8/  9 1019.4F
C TOWER          2000   77      80/  9/ 10 1019.7F
APALACHICOLA BUO 1950   79 81   90/ 12/ 16 1019.4F         3/ 6
PANAMA CITY BUOY 1950   79 81  100/ 12/ 16 1019.3F         3/ 5
MOBILE BUOY      1950   80 82  110/ 12/ 16 1018.9F         3/ 6
ORANGE BCH AL BU 1950   80 80  110/ 12/ 14 1018.2F         3/ 4
$$



USA.gov is the U.S. government's official web portal to all federal, state and local government web resources and services.